START_TIME,STEP,MOV.,M34,t_acc.,L5,t_acc.,L18,t_acc.,L14,t_acc.
1979-03-09 15:00:21.770 ,4,1,0.,12.0,0.,12.0,0.,12.0,0.,12.0
1979-03-09 15:00:33.770 ,4,1,1.,12.0,0.,12.0,0.,12.0,0.,12.0
1979-03-09 15:00:45.770 ,0,1,0.,12.0,0.,12.0,0.,12.0,0.,12.0
1979-03-09 15:00:57.770 ,0,1,0.,12.0,0.,12.0,0.,12.0,0.,12.0
1979-03-09 15:01:09.770 ,3,1,0.,12.0,0.,12.0,0.,12.0,0.,12.0
1979-03-09 15:01:21.770 ,3,1,0.,12.0,0.,12.0,0.,12.0,0.,12.0
1979-03-09 15:01:33.770 ,7,1,1.,12.0,0.,12.0,0.,12.0,0.,12.0
1979-03-09 15:01:45.770 ,7,1,1.,12.0,0.,12.0,0.,12.0,0.,12.0
1979-03-09 15:01:57.770 ,4,1,0.,12.0,0.,12.0,0.,12.0,0.,12.0
1979-03-09 15:02:09.770 ,4,1,0.,12.0,0.,12.0,0.,12.0,0.,12.0
1979-03-09 15:02:21.770 ,0,1,0.,12.0,0.,12.0,0.,12.0,0.,12.0
1979-03-09 15:02:33.770 ,0,1,2.,12.0,0.,12.0,0.,12.0,0.,12.0
1979-03-09 15:02:45.770 ,3,1,0.,12.0,0.,12.0,0.,12.0,0.,12.0
1979-03-09 15:02:57.770 ,3,1,1.,12.0,0.,12.0,0.,12.0,0.,12.0
1979-03-09 15:03:09.770 ,7,1,2.,12.0,0.,12.0,0.,12.0,0.,12.0
1979-03-09 15:03:21.770 ,7,1,2.,12.0,0.,12.0,0.,12.0,0.,12.0
1979-03-09 15:03:33.770 ,4,1,0.,12.0,0.,12.0,0.,12.0,0.,12.0
1979-03-09 15:03:45.770 ,4,1,0.,12.0,0.,12.0,0.,12.0,0.,12.0
1979-03-09 15:03:57.760 ,0,1,0.,12.0,0.,12.0,0.,12.0,0.,12.0
1979-03-09 15:04:09.770 ,0,1,1.,12.0,0.,12.0,0.,12.0,0.,12.0
1979-03-09 15:04:21.770 ,3,1,0.,12.0,1.,12.0,0.,12.0,0.,12.0
1979-03-09 15:04:33.770 ,3,1,0.,12.0,0.,12.0,0.,12.0,0.,12.0
1979-03-09 15:04:45.760 ,7,1,0.,12.0,0.,12.0,0.,12.0,0.,12.0
1979-03-09 15:04:57.760 ,7,1,0.,12.0,0.,12.0,0.,12.0,0.,12.0
1979-03-09 15:05:09.760 ,4,1,0.,12.0,0.,12.0,0.,12.0,0.,12.0
1979-03-09 15:05:21.760 ,4,1,1.,12.0,0.,12.0,0.,12.0,0.,12.0
1979-03-09 15:05:33.760 ,0,1,0.,12.0,0.,12.0,0.,12.0,0.,12.0
1979-03-09 15:05:45.760 ,0,1,0.,12.0,0.,12.0,0.,12.0,0.,12.0
1979-03-09 15:05:57.760 ,3,1,1.,12.0,0.,12.0,0.,12.0,0.,12.0
1979-03-09 15:06:09.760 ,3,1,0.,12.0,0.,12.0,0.,12.0,0.,12.0
1979-03-09 15:06:21.760 ,7,1,2.,12.0,0.,12.0,0.,12.0,0.,12.0
1979-03-09 15:06:33.760 ,7,1,0.,12.0,0.,12.0,0.,12.0,0.,12.0
1979-03-09 15:06:45.760 ,4,1,0.,12.0,0.,12.0,0.,12.0,0.,12.0
1979-03-09 15:06:57.760 ,4,1,0.,12.0,0.,12.0,0.,12.0,0.,12.0
1979-03-09 15:07:09.760 ,0,1,4.,12.0,0.,12.0,0.,12.0,0.,12.0
1979-03-09 15:07:21.760 ,0,1,1.,12.0,0.,12.0,0.,12.0,0.,12.0
1979-03-09 15:07:33.760 ,3,1,0.,12.0,0.,12.0,0.,12.0,0.,12.0
1979-03-09 15:07:45.760 ,3,1,0.,12.0,0.,12.0,0.,12.0,0.,12.0
1979-03-09 15:07:57.760 ,7,1,0.,12.0,0.,12.0,0.,12.0,0.,12.0
1979-03-09 15:08:09.760 ,7,1,1.,12.0,0.,12.0,0.,12.0,0.,12.0
1979-03-09 15:08:21.760 ,4,1,0.,12.0,0.,12.0,0.,12.0,0.,12.0
1979-03-09 15:08:33.760 ,4,1,2.,12.0,0.,12.0,0.,12.0,0.,12.0
1979-03-09 15:08:45.760 ,0,1,0.,12.0,0.,12.0,0.,12.0,0.,12.0
1979-03-09 15:08:57.760 ,0,1,0.,12.0,0.,12.0,0.,12.0,0.,12.0
1979-03-09 15:09:09.760 ,3,1,0.,12.0,0.,12.0,0.,12.0,0.,12.0
1979-03-09 15:09:21.760 ,3,1,0.,12.0,0.,12.0,0.,12.0,0.,12.0
1979-03-09 15:09:33.760 ,7,1,2.,12.0,0.,12.0,0.,12.0,0.,12.0
1979-03-09 15:09:45.760 ,7,1,0.,12.0,0.,12.0,0.,12.0,0.,12.0
1979-03-09 15:09:57.760 ,0,0,0.,12.0,0.,12.0,0.,12.0,0.,12.0
1979-03-09 15:10:09.760 ,0,0,1.,12.0,0.,12.0,0.,12.0,0.,12.0
1979-03-09 15:10:46.360 ,0,0,0.,12.0,0.,12.0,0.,12.0,0.,12.0
1979-03-09 15:10:58.360 ,0,0,0.,12.0,0.,12.0,0.,12.0,0.,12.0
1979-03-09 15:11:09.760 ,7,1,1.,12.0,0.,12.0,0.,12.0,0.,12.0
1979-03-09 15:11:21.760 ,7,1,0.,12.0,0.,12.0,0.,12.0,0.,12.0
1979-03-09 15:11:33.760 ,4,1,0.,12.0,0.,12.0,0.,12.0,0.,12.0
1979-03-09 15:11:45.760 ,4,1,0.,12.0,0.,12.0,0.,12.0,0.,12.0
1979-03-09 15:11:57.760 ,0,1,1.,12.0,0.,12.0,0.,12.0,0.,12.0
1979-03-09 15:12:09.760 ,0,1,0.,12.0,0.,12.0,0.,12.0,0.,12.0
1979-03-09 15:12:21.760 ,3,1,0.,12.0,0.,12.0,0.,12.0,0.,12.0
1979-03-09 15:12:33.760 ,3,1,0.,12.0,0.,12.0,0.,12.0,0.,12.0
1979-03-09 15:12:45.760 ,7,1,3.,12.0,0.,12.0,0.,12.0,0.,12.0
1979-03-09 15:12:57.760 ,7,1,1.,12.0,0.,12.0,0.,12.0,0.,12.0
1979-03-09 15:13:09.760 ,4,1,0.,12.0,0.,12.0,0.,12.0,0.,12.0
1979-03-09 15:13:21.760 ,4,1,1.,12.0,1.,12.0,0.,12.0,0.,12.0
1979-03-09 15:13:33.760 ,0,1,0.,12.0,0.,12.0,0.,12.0,0.,12.0
1979-03-09 15:13:45.760 ,0,1,0.,12.0,0.,12.0,0.,12.0,0.,12.0
1979-03-09 15:13:57.760 ,3,1,1.,12.0,0.,12.0,0.,12.0,0.,12.0
1979-03-09 15:14:09.760 ,3,1,0.,12.0,1.,12.0,0.,12.0,0.,12.0
1979-03-09 15:14:21.750 ,7,1,1.,12.0,0.,12.0,0.,12.0,0.,12.0
1979-03-09 15:14:33.750 ,7,1,1.,12.0,0.,12.0,0.,12.0,0.,12.0
1979-03-09 15:14:45.750 ,4,1,0.,12.0,0.,12.0,0.,12.0,0.,12.0
1979-03-09 15:14:57.750 ,4,1,1.,12.0,0.,12.0,0.,12.0,0.,12.0
1979-03-09 15:15:09.750 ,0,1,0.,12.0,0.,12.0,0.,12.0,0.,12.0
1979-03-09 15:15:21.750 ,0,1,0.,12.0,1.,12.0,0.,12.0,0.,12.0
1979-03-09 15:15:33.750 ,3,1,0.,12.0,0.,12.0,0.,12.0,0.,12.0
1979-03-09 15:15:45.750 ,3,1,0.,12.0,0.,12.0,0.,12.0,0.,12.0
1979-03-09 15:15:57.750 ,7,1,1.,12.0,0.,12.0,0.,12.0,0.,12.0
1979-03-09 15:16:09.750 ,7,1,0.,12.0,0.,12.0,0.,12.0,0.,12.0
1979-03-09 15:16:21.750 ,4,1,0.,12.0,0.,12.0,0.,12.0,0.,12.0
1979-03-09 15:16:33.750 ,4,1,2.,12.0,0.,12.0,0.,12.0,0.,12.0
1979-03-09 15:16:45.750 ,0,1,1.,12.0,1.,12.0,0.,12.0,0.,12.0
1979-03-09 15:16:57.750 ,0,1,0.,12.0,1.,12.0,0.,12.0,0.,12.0
1979-03-09 15:17:09.750 ,3,1,0.,12.0,0.,12.0,0.,12.0,0.,12.0
1979-03-09 15:17:21.750 ,3,1,1.,12.0,0.,12.0,0.,12.0,0.,12.0
1979-03-09 15:17:33.750 ,7,1,0.,12.0,1.,12.0,0.,12.0,0.,12.0
1979-03-09 15:17:45.750 ,7,1,0.,12.0,0.,12.0,0.,12.0,0.,12.0
1979-03-09 15:17:57.750 ,4,1,0.,12.0,0.,12.0,0.,12.0,0.,12.0
1979-03-09 15:18:09.750 ,4,1,1.,12.0,0.,12.0,0.,12.0,0.,12.0
1979-03-09 15:18:21.750 ,0,1,1.,12.0,1.,12.0,0.,12.0,0.,12.0
1979-03-09 15:18:33.750 ,0,1,1.,12.0,0.,12.0,0.,12.0,0.,12.0
1979-03-09 15:18:45.750 ,3,1,0.,12.0,0.,12.0,0.,12.0,0.,12.0
1979-03-09 15:18:57.750 ,3,1,1.,12.0,0.,12.0,0.,12.0,0.,12.0
1979-03-09 15:19:09.750 ,7,1,0.,12.0,0.,12.0,0.,12.0,0.,12.0
1979-03-09 15:19:21.750 ,7,1,0.,12.0,0.,12.0,0.,12.0,0.,12.0
1979-03-09 15:19:33.750 ,4,1,0.,12.0,0.,12.0,0.,12.0,0.,12.0
1979-03-09 15:19:45.750 ,4,1,1.,12.0,0.,12.0,0.,12.0,0.,12.0
1979-03-09 15:19:57.750 ,0,1,1.,12.0,0.,12.0,0.,12.0,0.,12.0
1979-03-09 15:20:09.750 ,0,1,0.,12.0,0.,12.0,0.,12.0,0.,12.0
1979-03-09 15:20:21.750 ,3,1,0.,12.0,0.,12.0,0.,12.0,0.,12.0
1979-03-09 15:20:33.750 ,3,1,0.,12.0,0.,12.0,0.,12.0,0.,12.0
1979-03-09 15:20:45.750 ,7,1,1.,12.0,0.,12.0,0.,12.0,0.,12.0
1979-03-09 15:20:57.750 ,7,1,0.,12.0,0.,12.0,0.,12.0,0.,12.0
1979-03-09 15:21:09.750 ,4,1,0.,12.0,0.,12.0,0.,12.0,0.,12.0
1979-03-09 15:21:21.750 ,4,1,0.,12.0,0.,12.0,0.,12.0,0.,12.0
1979-03-09 15:21:33.750 ,0,1,1.,12.0,0.,12.0,0.,12.0,0.,12.0
1979-03-09 15:21:45.750 ,0,1,2.,12.0,0.,12.0,0.,12.0,0.,12.0
1979-03-09 15:21:57.750 ,3,1,0.,12.0,0.,12.0,0.,12.0,0.,12.0
1979-03-09 15:22:09.750 ,3,1,3.,12.0,0.,12.0,0.,12.0,0.,12.0
1979-03-09 15:22:21.740 ,7,1,0.,12.0,0.,12.0,0.,12.0,0.,12.0
1979-03-09 15:22:33.740 ,7,1,0.,12.0,0.,12.0,0.,12.0,0.,12.0
1979-03-09 15:22:45.740 ,4,1,0.,12.0,0.,12.0,0.,12.0,0.,12.0
1979-03-09 15:22:57.740 ,4,1,0.,12.0,0.,12.0,0.,12.0,0.,12.0
1979-03-09 15:23:09.740 ,0,1,1.,12.0,0.,12.0,0.,12.0,0.,12.0
1979-03-09 15:23:21.740 ,0,1,1.,12.0,0.,12.0,0.,12.0,0.,12.0
1979-03-09 15:23:33.740 ,3,1,0.,12.0,0.,12.0,0.,12.0,0.,12.0
1979-03-09 15:23:45.740 ,3,1,0.,12.0,0.,12.0,0.,12.0,0.,12.0
1979-03-09 15:23:57.740 ,7,1,1.,12.0,0.,12.0,0.,12.0,0.,12.0
1979-03-09 15:24:09.740 ,7,1,0.,12.0,1.,12.0,0.,12.0,0.,12.0
1979-03-09 15:24:21.740 ,4,1,0.,12.0,0.,12.0,0.,12.0,1.,12.0
1979-03-09 15:24:33.740 ,4,1,0.,12.0,0.,12.0,0.,12.0,0.,12.0
1979-03-09 15:24:45.740 ,0,1,1.,12.0,0.,12.0,0.,12.0,0.,12.0
1979-03-09 15:24:57.740 ,0,1,1.,12.0,1.,12.0,0.,12.0,0.,12.0
1979-03-09 15:25:09.740 ,3,1,0.,12.0,0.,12.0,0.,12.0,0.,12.0
1979-03-09 15:25:21.740 ,3,1,1.,12.0,1.,12.0,0.,12.0,0.,12.0
1979-03-09 15:25:33.740 ,7,1,0.,12.0,0.,12.0,0.,12.0,0.,12.0
1979-03-09 15:25:45.740 ,7,1,0.,12.0,0.,12.0,0.,12.0,0.,12.0
1979-03-09 15:25:57.740 ,4,1,0.,12.0,0.,12.0,0.,12.0,0.,12.0
1979-03-09 15:26:09.740 ,4,1,1.,12.0,0.,12.0,0.,12.0,0.,12.0
1979-03-09 15:26:21.740 ,0,1,1.,12.0,0.,12.0,0.,12.0,0.,12.0
1979-03-09 15:26:33.740 ,0,1,0.,12.0,0.,12.0,0.,12.0,0.,12.0
1979-03-09 15:26:45.740 ,3,1,0.,12.0,0.,12.0,0.,12.0,0.,12.0
1979-03-09 15:26:57.740 ,3,1,2.,12.0,0.,12.0,0.,12.0,0.,12.0
1979-03-09 15:27:09.740 ,7,1,0.,12.0,0.,12.0,0.,12.0,0.,12.0
1979-03-09 15:27:21.740 ,7,1,0.,12.0,0.,12.0,0.,12.0,0.,12.0
1979-03-09 15:27:33.740 ,4,1,0.,12.0,0.,12.0,0.,12.0,0.,12.0
1979-03-09 15:27:45.740 ,4,1,0.,12.0,0.,12.0,0.,12.0,0.,12.0
1979-03-09 15:27:57.740 ,0,1,2.,12.0,0.,12.0,0.,12.0,0.,12.0
1979-03-09 15:28:09.740 ,0,1,0.,12.0,0.,12.0,0.,12.0,0.,12.0
1979-03-09 15:28:21.740 ,3,1,0.,12.0,0.,12.0,0.,12.0,0.,12.0
1979-03-09 15:28:33.740 ,3,1,2.,12.0,0.,12.0,0.,12.0,0.,12.0
1979-03-09 15:28:45.740 ,7,1,1.,12.0,0.,12.0,0.,12.0,0.,12.0
1979-03-09 15:28:57.740 ,7,1,0.,12.0,1.,12.0,0.,12.0,0.,12.0
1979-03-09 15:29:09.740 ,0,0,0.,12.0,0.,12.0,0.,12.0,0.,12.0
1979-03-09 15:29:21.740 ,0,0,0.,12.0,0.,12.0,0.,12.0,0.,12.0
1979-03-09 15:30:10.940 ,0,0,,0,,0,,0,,0
1979-03-09 15:30:22.940 ,0,0,0.,12.0,0.,12.0,0.,12.0,0.,12.0
1979-03-09 15:30:21.740 ,7,1,2.,12.0,0.,12.0,0.,12.0,0.,12.0
1979-03-09 15:30:33.740 ,7,1,0.,12.0,0.,12.0,0.,12.0,1.,12.0
1979-03-09 15:30:45.740 ,4,1,0.,12.0,0.,12.0,0.,12.0,0.,12.0
1979-03-09 15:30:57.740 ,4,1,1.,12.0,0.,12.0,0.,12.0,0.,12.0
1979-03-09 15:31:09.730 ,2,1,0.,12.0,0.,12.0,0.,12.0,0.,12.0
1979-03-09 15:31:21.730 ,2,1,0.,12.0,0.,12.0,0.,12.0,0.,12.0
1979-03-09 15:31:33.730 ,1,1,1.,12.0,1.,12.0,0.,12.0,0.,12.0
1979-03-09 15:31:45.730 ,1,1,0.,12.0,0.,12.0,0.,12.0,0.,12.0
1979-03-09 15:31:57.730 ,0,1,0.,12.0,0.,12.0,0.,12.0,0.,12.0
1979-03-09 15:32:09.730 ,0,1,0.,12.0,0.,12.0,0.,12.0,0.,12.0
1979-03-09 15:32:21.730 ,0,1,1.,12.0,0.,12.0,0.,12.0,0.,12.0
1979-03-09 15:32:33.730 ,0,1,0.,12.0,0.,12.0,0.,12.0,0.,12.0
1979-03-09 15:32:45.730 ,1,1,0.,12.0,0.,12.0,0.,12.0,0.,12.0
1979-03-09 15:32:57.730 ,1,1,0.,12.0,0.,12.0,0.,12.0,0.,12.0
1979-03-09 15:33:09.730 ,2,1,0.,12.0,0.,12.0,0.,12.0,0.,12.0
1979-03-09 15:33:21.730 ,2,1,0.,12.0,0.,12.0,0.,12.0,0.,12.0
1979-03-09 15:33:33.730 ,3,1,0.,12.0,0.,12.0,0.,12.0,0.,12.0
1979-03-09 15:33:45.730 ,3,1,1.,12.0,0.,12.0,0.,12.0,0.,12.0
1979-03-09 15:33:57.730 ,4,1,1.,12.0,0.,12.0,0.,12.0,0.,12.0
1979-03-09 15:34:09.730 ,4,1,0.,12.0,0.,12.0,0.,12.0,0.,12.0
1979-03-09 15:34:21.730 ,5,1,2.,12.0,0.,12.0,0.,12.0,0.,12.0
1979-03-09 15:34:33.730 ,5,1,0.,12.0,0.,12.0,0.,12.0,0.,12.0
1979-03-09 15:34:45.730 ,6,1,1.,12.0,0.,12.0,0.,12.0,0.,12.0
1979-03-09 15:34:57.730 ,6,1,0.,12.0,0.,12.0,0.,12.0,0.,12.0
1979-03-09 15:35:09.730 ,7,1,1.,12.0,0.,12.0,0.,12.0,0.,12.0
1979-03-09 15:35:21.730 ,7,1,0.,12.0,0.,12.0,0.,12.0,0.,12.0
1979-03-09 15:35:33.730 ,7,1,0.,12.0,0.,12.0,0.,12.0,0.,12.0
1979-03-09 15:35:45.730 ,7,1,0.,12.0,0.,12.0,0.,12.0,0.,12.0
1979-03-09 15:35:57.730 ,6,1,0.,12.0,0.,12.0,0.,12.0,0.,12.0
1979-03-09 15:36:09.730 ,6,1,0.,12.0,0.,12.0,0.,12.0,0.,12.0
1979-03-09 15:36:21.730 ,5,1,0.,12.0,0.,12.0,0.,12.0,0.,12.0
1979-03-09 15:36:33.730 ,5,1,0.,12.0,0.,12.0,0.,12.0,0.,12.0
1979-03-09 15:36:45.730 ,4,1,0.,12.0,0.,12.0,0.,12.0,0.,12.0
1979-03-09 15:36:57.730 ,4,1,0.,12.0,0.,12.0,0.,12.0,0.,12.0
1979-03-09 15:37:09.730 ,3,1,0.,12.0,0.,12.0,0.,12.0,0.,12.0
1979-03-09 15:37:21.730 ,3,1,0.,12.0,0.,12.0,0.,12.0,0.,12.0
1979-03-09 15:37:33.730 ,2,1,1.,12.0,0.,12.0,0.,12.0,0.,12.0
1979-03-09 15:37:45.730 ,2,1,0.,12.0,0.,12.0,0.,12.0,0.,12.0
1979-03-09 15:37:57.730 ,1,1,1.,12.0,0.,12.0,0.,12.0,0.,12.0
1979-03-09 15:38:09.730 ,1,1,0.,12.0,0.,12.0,0.,12.0,0.,12.0
1979-03-09 15:38:21.730 ,0,1,0.,12.0,0.,12.0,0.,12.0,0.,12.0
1979-03-09 15:38:33.730 ,0,1,0.,12.0,0.,12.0,0.,12.0,0.,12.0
1979-03-09 15:38:45.730 ,0,1,0.,12.0,0.,12.0,0.,12.0,0.,12.0
1979-03-09 15:38:57.730 ,0,1,0.,12.0,0.,12.0,0.,12.0,0.,12.0
1979-03-09 15:39:09.730 ,1,1,0.,12.0,0.,12.0,0.,12.0,0.,12.0
1979-03-09 15:39:21.730 ,1,1,0.,12.0,0.,12.0,0.,12.0,0.,12.0
1979-03-09 15:39:33.730 ,2,1,0.,12.0,0.,12.0,0.,12.0,0.,12.0
1979-03-09 15:39:45.730 ,2,1,0.,12.0,0.,12.0,0.,12.0,0.,12.0
1979-03-09 15:39:57.730 ,3,1,0.,12.0,0.,12.0,0.,12.0,0.,12.0
1979-03-09 15:40:09.730 ,3,1,0.,12.0,0.,12.0,0.,12.0,0.,12.0
1979-03-09 15:40:21.730 ,4,1,0.,12.0,1.,12.0,0.,12.0,0.,12.0
1979-03-09 15:40:33.730 ,4,1,0.,12.0,0.,12.0,0.,12.0,0.,12.0
1979-03-09 15:40:45.720 ,5,1,1.,12.0,0.,12.0,0.,12.0,0.,12.0
1979-03-09 15:40:57.720 ,5,1,0.,12.0,0.,12.0,0.,12.0,0.,12.0
1979-03-09 15:41:09.720 ,6,1,1.,12.0,0.,12.0,0.,12.0,0.,12.0
1979-03-09 15:41:21.720 ,6,1,0.,12.0,0.,12.0,0.,12.0,0.,12.0
1979-03-09 15:41:33.720 ,7,1,0.,12.0,0.,12.0,0.,12.0,0.,12.0
1979-03-09 15:41:45.720 ,7,1,0.,12.0,0.,12.0,0.,12.0,0.,12.0
1979-03-09 15:41:57.720 ,7,1,0.,12.0,0.,12.0,0.,12.0,0.,12.0
1979-03-09 15:42:09.720 ,7,1,0.,12.0,0.,12.0,0.,12.0,0.,12.0
1979-03-09 15:42:21.720 ,6,1,0.,12.0,0.,12.0,0.,12.0,0.,12.0
1979-03-09 15:42:33.720 ,6,1,0.,12.0,0.,12.0,0.,12.0,0.,12.0
1979-03-09 15:42:45.720 ,5,1,1.,12.0,0.,12.0,0.,12.0,0.,12.0
1979-03-09 15:42:57.720 ,5,1,0.,12.0,0.,12.0,0.,12.0,0.,12.0
1979-03-09 15:43:09.720 ,4,1,0.,12.0,0.,12.0,0.,12.0,0.,12.0
1979-03-09 15:43:21.720 ,4,1,1.,12.0,0.,12.0,0.,12.0,0.,12.0
1979-03-09 15:43:33.720 ,3,1,1.,12.0,0.,12.0,0.,12.0,0.,12.0
1979-03-09 15:43:45.720 ,3,1,0.,12.0,0.,12.0,0.,12.0,0.,12.0
1979-03-09 15:43:57.720 ,2,1,3.,12.0,1.,12.0,0.,12.0,0.,12.0
1979-03-09 15:44:09.720 ,2,1,0.,12.0,0.,12.0,0.,12.0,0.,12.0
1979-03-09 15:44:21.720 ,1,1,0.,12.0,0.,12.0,0.,12.0,0.,12.0
1979-03-09 15:44:33.720 ,1,1,1.,12.0,0.,12.0,0.,12.0,0.,12.0
1979-03-09 15:44:45.720 ,0,1,0.,12.0,0.,12.0,0.,12.0,0.,12.0
1979-03-09 15:44:57.720 ,0,1,0.,12.0,0.,12.0,0.,12.0,0.,12.0
1979-03-09 15:45:09.720 ,0,1,0.,12.0,0.,12.0,0.,12.0,0.,12.0
1979-03-09 15:45:21.720 ,0,1,0.,12.0,0.,12.0,0.,12.0,0.,12.0
1979-03-09 15:45:33.720 ,1,1,1.,12.0,0.,12.0,0.,12.0,0.,12.0
1979-03-09 15:45:45.720 ,1,1,0.,12.0,0.,12.0,0.,12.0,0.,12.0
1979-03-09 15:45:57.720 ,2,1,0.,12.0,0.,12.0,0.,12.0,0.,12.0
1979-03-09 15:46:09.720 ,2,1,0.,12.0,0.,12.0,0.,12.0,0.,12.0
1979-03-09 15:46:21.720 ,3,1,0.,12.0,0.,12.0,0.,12.0,0.,12.0
1979-03-09 15:46:33.720 ,3,1,1.,12.0,0.,12.0,0.,12.0,0.,12.0
1979-03-09 15:46:45.720 ,4,1,0.,12.0,0.,12.0,0.,12.0,0.,12.0
1979-03-09 15:46:57.720 ,4,1,0.,12.0,0.,12.0,0.,12.0,0.,12.0
1979-03-09 15:47:09.720 ,5,1,0.,12.0,0.,12.0,0.,12.0,0.,12.0
1979-03-09 15:47:21.720 ,5,1,1.,12.0,0.,12.0,0.,12.0,0.,12.0
1979-03-09 15:47:33.720 ,6,1,2.,12.0,0.,12.0,0.,12.0,0.,12.0
1979-03-09 15:47:45.720 ,6,1,1.,12.0,0.,12.0,0.,12.0,0.,12.0
1979-03-09 15:47:57.720 ,7,1,0.,12.0,0.,12.0,0.,12.0,0.,12.0
1979-03-09 15:48:09.720 ,7,1,0.,12.0,0.,12.0,0.,12.0,0.,12.0
1979-03-09 15:48:21.720 ,7,1,0.,12.0,0.,12.0,0.,12.0,0.,12.0
1979-03-09 15:48:33.720 ,7,1,0.,12.0,0.,12.0,0.,12.0,0.,12.0
1979-03-09 15:48:45.720 ,6,1,0.,12.0,0.,12.0,0.,12.0,0.,12.0
1979-03-09 15:48:57.720 ,6,1,0.,12.0,0.,12.0,0.,12.0,0.,12.0
1979-03-09 15:49:09.720 ,5,1,0.,12.0,0.,12.0,0.,12.0,0.,12.0
1979-03-09 15:49:21.720 ,5,1,1.,12.0,0.,12.0,0.,12.0,0.,12.0
1979-03-09 15:49:33.710 ,4,1,0.,12.0,0.,12.0,0.,12.0,0.,12.0
1979-03-09 15:49:45.710 ,4,1,0.,12.0,0.,12.0,0.,12.0,0.,12.0
1979-03-09 15:49:57.710 ,3,1,2.,12.0,0.,12.0,0.,12.0,1.,12.0
1979-03-09 15:50:09.710 ,3,1,0.,12.0,0.,12.0,0.,12.0,0.,12.0
1979-03-09 15:50:21.710 ,2,1,0.,12.0,1.,12.0,0.,12.0,0.,12.0
1979-03-09 15:50:33.710 ,2,1,0.,12.0,0.,12.0,0.,12.0,0.,12.0
1979-03-09 15:50:45.710 ,1,1,0.,12.0,0.,12.0,0.,12.0,0.,12.0
1979-03-09 15:50:57.710 ,1,1,0.,12.0,0.,12.0,0.,12.0,0.,12.0
1979-03-09 15:51:09.710 ,0,1,0.,12.0,0.,12.0,0.,12.0,0.,12.0
1979-03-09 15:51:21.710 ,0,1,0.,12.0,0.,12.0,0.,12.0,0.,12.0
1979-03-09 15:51:33.710 ,0,1,0.,12.0,0.,12.0,0.,12.0,0.,12.0
1979-03-09 15:51:45.710 ,0,1,0.,12.0,0.,12.0,0.,12.0,0.,12.0
1979-03-09 15:51:57.710 ,1,1,0.,12.0,0.,12.0,0.,12.0,0.,12.0
1979-03-09 15:52:09.710 ,1,1,0.,12.0,0.,12.0,0.,12.0,0.,12.0
1979-03-09 15:52:21.710 ,2,1,0.,12.0,0.,12.0,0.,12.0,0.,12.0
1979-03-09 15:52:33.710 ,2,1,1.,12.0,0.,12.0,0.,12.0,0.,12.0
1979-03-09 15:52:45.710 ,3,1,0.,12.0,0.,12.0,0.,12.0,0.,12.0
1979-03-09 15:52:57.710 ,3,1,1.,12.0,0.,12.0,0.,12.0,0.,12.0
1979-03-09 15:53:09.710 ,4,1,1.,12.0,0.,12.0,0.,12.0,0.,12.0
1979-03-09 15:53:21.710 ,4,1,0.,12.0,0.,12.0,0.,12.0,0.,12.0
1979-03-09 15:53:33.710 ,5,1,1.,12.0,0.,12.0,0.,12.0,0.,12.0
1979-03-09 15:53:45.710 ,5,1,2.,12.0,0.,12.0,0.,12.0,0.,12.0
1979-03-09 15:53:57.710 ,6,1,1.,12.0,1.,12.0,0.,12.0,0.,12.0
1979-03-09 15:54:09.710 ,6,1,0.,12.0,0.,12.0,0.,12.0,0.,12.0
1979-03-09 15:54:21.710 ,7,1,0.,12.0,0.,12.0,0.,12.0,0.,12.0
1979-03-09 15:54:33.710 ,7,1,0.,12.0,0.,12.0,0.,12.0,0.,12.0
1979-03-09 15:54:45.710 ,7,1,0.,12.0,0.,12.0,0.,12.0,0.,12.0
1979-03-09 15:54:57.710 ,7,1,0.,12.0,0.,12.0,0.,12.0,0.,12.0
1979-03-09 15:55:09.710 ,6,1,0.,12.0,0.,12.0,0.,12.0,0.,12.0
1979-03-09 15:55:21.710 ,6,1,0.,12.0,0.,12.0,0.,12.0,0.,12.0
1979-03-09 15:55:33.710 ,5,1,0.,12.0,0.,12.0,0.,12.0,0.,12.0
1979-03-09 15:55:45.710 ,5,1,1.,12.0,0.,12.0,0.,12.0,0.,12.0
1979-03-09 15:55:57.710 ,4,1,0.,12.0,0.,12.0,0.,12.0,0.,12.0
1979-03-09 15:56:09.710 ,4,1,0.,12.0,0.,12.0,0.,12.0,0.,12.0
1979-03-09 15:56:21.710 ,3,1,0.,12.0,0.,12.0,0.,12.0,0.,12.0
1979-03-09 15:56:33.710 ,3,1,1.,12.0,0.,12.0,0.,12.0,0.,12.0
1979-03-09 15:56:45.710 ,2,1,2.,12.0,0.,12.0,0.,12.0,0.,12.0
1979-03-09 15:56:57.710 ,2,1,0.,12.0,1.,12.0,0.,12.0,0.,12.0
1979-03-09 15:57:09.710 ,1,1,0.,12.0,0.,12.0,0.,12.0,0.,12.0
1979-03-09 15:57:21.710 ,1,1,0.,12.0,0.,12.0,0.,12.0,0.,12.0
1979-03-09 15:57:33.710 ,0,1,0.,12.0,0.,12.0,0.,12.0,0.,12.0
1979-03-09 15:57:45.710 ,0,1,0.,12.0,0.,12.0,0.,12.0,0.,12.0
1979-03-09 15:57:57.710 ,0,1,0.,12.0,0.,12.0,0.,12.0,0.,12.0
1979-03-09 15:58:09.710 ,0,1,0.,12.0,0.,12.0,0.,12.0,0.,12.0
1979-03-09 15:58:21.700 ,1,1,0.,12.0,0.,12.0,0.,12.0,0.,12.0
1979-03-09 15:58:33.700 ,1,1,0.,12.0,0.,12.0,0.,12.0,0.,12.0
1979-03-09 15:58:45.700 ,2,1,0.,12.0,0.,12.0,0.,12.0,0.,12.0
1979-03-09 15:58:57.700 ,2,1,1.,12.0,0.,12.0,0.,12.0,0.,12.0
1979-03-09 15:59:09.700 ,3,1,0.,12.0,0.,12.0,0.,12.0,0.,12.0
1979-03-09 15:59:21.700 ,3,1,1.,12.0,0.,12.0,0.,12.0,0.,12.0
1979-03-09 15:59:33.700 ,4,1,2.,12.0,0.,12.0,0.,12.0,0.,12.0
1979-03-09 15:59:45.700 ,4,1,1.,12.0,0.,12.0,0.,12.0,0.,12.0
1979-03-09 15:59:57.700 ,5,1,0.,12.0,0.,12.0,0.,12.0,0.,12.0
1979-03-09 16:00:09.700 ,5,1,0.,12.0,0.,12.0,0.,12.0,0.,12.0
1979-03-09 16:00:21.700 ,6,1,0.,12.0,0.,12.0,0.,12.0,0.,12.0
1979-03-09 16:00:33.700 ,6,1,0.,12.0,0.,12.0,0.,12.0,0.,12.0
1979-03-09 16:00:45.700 ,7,1,1.,12.0,0.,12.0,0.,12.0,0.,12.0
1979-03-09 16:00:57.700 ,7,1,0.,12.0,0.,12.0,0.,12.0,0.,12.0
1979-03-09 16:01:09.700 ,7,1,0.,12.0,0.,12.0,0.,12.0,0.,12.0
1979-03-09 16:01:21.700 ,7,1,0.,12.0,0.,12.0,0.,12.0,0.,12.0
1979-03-09 16:01:33.700 ,6,1,0.,12.0,0.,12.0,0.,12.0,0.,12.0
1979-03-09 16:01:45.700 ,6,1,0.,12.0,0.,12.0,0.,12.0,0.,12.0
1979-03-09 16:01:57.700 ,5,1,1.,12.0,0.,12.0,0.,12.0,0.,12.0
1979-03-09 16:02:09.700 ,5,1,0.,12.0,0.,12.0,0.,12.0,0.,12.0
1979-03-09 16:02:21.700 ,4,1,0.,12.0,0.,12.0,0.,12.0,0.,12.0
1979-03-09 16:02:33.700 ,4,1,0.,12.0,0.,12.0,0.,12.0,0.,12.0
1979-03-09 16:02:45.700 ,3,1,2.,12.0,0.,12.0,0.,12.0,0.,12.0
1979-03-09 16:02:57.700 ,3,1,0.,12.0,0.,12.0,0.,12.0,0.,12.0
1979-03-09 16:03:09.700 ,2,1,0.,12.0,0.,12.0,0.,12.0,0.,12.0
1979-03-09 16:03:21.700 ,2,1,0.,12.0,0.,12.0,0.,12.0,0.,12.0
1979-03-09 16:03:33.700 ,1,1,0.,12.0,0.,12.0,0.,12.0,0.,12.0
1979-03-09 16:03:45.700 ,1,1,0.,12.0,0.,12.0,0.,12.0,0.,12.0
1979-03-09 16:03:57.700 ,0,1,0.,12.0,0.,12.0,0.,12.0,0.,12.0
1979-03-09 16:04:09.700 ,0,1,0.,12.0,0.,12.0,0.,12.0,0.,12.0
1979-03-09 16:04:21.700 ,0,1,0.,12.0,0.,12.0,0.,12.0,0.,12.0
1979-03-09 16:04:33.700 ,0,1,0.,12.0,0.,12.0,0.,12.0,0.,12.0
1979-03-09 16:04:45.700 ,1,1,0.,12.0,0.,12.0,0.,12.0,0.,12.0
1979-03-09 16:04:57.700 ,1,1,0.,12.0,0.,12.0,0.,12.0,0.,12.0
1979-03-09 16:05:09.700 ,2,1,0.,12.0,0.,12.0,0.,12.0,0.,12.0
1979-03-09 16:05:21.700 ,2,1,0.,12.0,0.,12.0,0.,12.0,0.,12.0
1979-03-09 16:05:33.700 ,3,1,0.,12.0,0.,12.0,0.,12.0,0.,12.0
1979-03-09 16:05:45.700 ,3,1,0.,12.0,0.,12.0,0.,12.0,0.,12.0
1979-03-09 16:05:57.700 ,4,1,0.,12.0,0.,12.0,0.,12.0,0.,12.0
1979-03-09 16:06:09.700 ,4,1,1.,12.0,0.,12.0,0.,12.0,0.,12.0
1979-03-09 16:06:21.700 ,5,1,0.,12.0,0.,12.0,0.,12.0,0.,12.0
1979-03-09 16:06:33.700 ,5,1,0.,12.0,0.,12.0,0.,12.0,0.,12.0
1979-03-09 16:06:45.700 ,6,1,0.,12.0,0.,12.0,0.,12.0,0.,12.0
1979-03-09 16:06:57.700 ,6,1,0.,12.0,0.,12.0,0.,12.0,0.,12.0
1979-03-09 16:07:09.700 ,7,1,0.,12.0,0.,12.0,0.,12.0,0.,12.0
1979-03-09 16:07:21.700 ,7,1,0.,12.0,0.,12.0,0.,12.0,0.,12.0
1979-03-09 16:07:33.700 ,7,1,0.,12.0,0.,12.0,0.,12.0,0.,12.0
1979-03-09 16:07:45.700 ,7,1,0.,12.0,0.,12.0,0.,12.0,0.,12.0
1979-03-09 16:07:57.700 ,6,1,0.,12.0,0.,12.0,0.,12.0,0.,12.0
1979-03-09 16:08:09.700 ,6,1,0.,12.0,0.,12.0,0.,12.0,0.,12.0
1979-03-09 16:08:21.700 ,5,1,1.,12.0,0.,12.0,0.,12.0,0.,12.0
1979-03-09 16:08:33.700 ,5,1,0.,12.0,0.,12.0,0.,12.0,0.,12.0
1979-03-09 16:08:45.690 ,4,1,0.,12.0,0.,12.0,0.,12.0,0.,12.0
1979-03-09 16:08:57.690 ,4,1,2.,12.0,0.,12.0,0.,12.0,0.,12.0
1979-03-09 16:09:09.690 ,3,1,0.,12.0,0.,12.0,0.,12.0,0.,12.0
1979-03-09 16:09:21.690 ,3,1,0.,12.0,0.,12.0,0.,12.0,0.,12.0
1979-03-09 16:09:33.690 ,2,1,0.,12.0,0.,12.0,0.,12.0,0.,12.0
1979-03-09 16:09:45.690 ,2,1,0.,12.0,0.,12.0,0.,12.0,0.,12.0
1979-03-09 16:09:57.690 ,1,1,1.,12.0,0.,12.0,0.,12.0,0.,12.0
1979-03-09 16:10:09.690 ,1,1,0.,12.0,0.,12.0,0.,12.0,0.,12.0
1979-03-09 16:10:21.690 ,0,1,0.,12.0,0.,12.0,0.,12.0,0.,12.0
1979-03-09 16:10:33.690 ,0,1,0.,12.0,0.,12.0,0.,12.0,0.,12.0
1979-03-09 16:10:45.690 ,0,1,0.,12.0,0.,12.0,0.,12.0,0.,12.0
1979-03-09 16:10:57.690 ,0,1,0.,12.0,0.,12.0,0.,12.0,0.,12.0
1979-03-09 16:11:09.690 ,1,1,0.,12.0,0.,12.0,0.,12.0,0.,12.0
1979-03-09 16:11:21.690 ,1,1,0.,12.0,0.,12.0,0.,12.0,0.,12.0
1979-03-09 16:11:33.690 ,2,1,0.,12.0,0.,12.0,0.,12.0,0.,12.0
1979-03-09 16:11:45.690 ,2,1,0.,12.0,0.,12.0,0.,12.0,0.,12.0
1979-03-09 16:11:57.690 ,3,1,0.,12.0,0.,12.0,0.,12.0,0.,12.0
1979-03-09 16:12:09.690 ,3,1,0.,12.0,0.,12.0,0.,12.0,0.,12.0
1979-03-09 16:12:21.690 ,4,1,0.,12.0,0.,12.0,0.,12.0,0.,12.0
1979-03-09 16:12:33.690 ,4,1,0.,12.0,0.,12.0,0.,12.0,0.,12.0
1979-03-09 16:12:45.690 ,5,1,0.,12.0,0.,12.0,0.,12.0,0.,12.0
1979-03-09 16:12:57.690 ,5,1,0.,12.0,0.,12.0,0.,12.0,0.,12.0
1979-03-09 16:13:09.690 ,6,1,0.,12.0,0.,12.0,0.,12.0,0.,12.0
1979-03-09 16:13:21.690 ,6,1,0.,12.0,0.,12.0,0.,12.0,0.,12.0
1979-03-09 16:13:33.690 ,7,1,0.,12.0,0.,12.0,0.,12.0,0.,12.0
1979-03-09 16:13:45.690 ,7,1,0.,12.0,0.,12.0,0.,12.0,0.,12.0
1979-03-09 16:13:57.690 ,7,1,0.,12.0,0.,12.0,0.,12.0,0.,12.0
1979-03-09 16:14:09.690 ,7,1,0.,12.0,0.,12.0,0.,12.0,0.,12.0
1979-03-09 16:14:21.690 ,6,1,0.,12.0,0.,12.0,0.,12.0,0.,12.0
1979-03-09 16:14:33.690 ,6,1,0.,12.0,0.,12.0,0.,12.0,0.,12.0
1979-03-09 16:14:45.690 ,5,1,0.,12.0,0.,12.0,0.,12.0,0.,12.0
1979-03-09 16:14:57.690 ,5,1,0.,12.0,0.,12.0,0.,12.0,0.,12.0
1979-03-09 16:15:09.690 ,4,1,0.,12.0,0.,12.0,0.,12.0,0.,12.0
1979-03-09 16:15:21.690 ,4,1,0.,12.0,0.,12.0,0.,12.0,0.,12.0
1979-03-09 16:15:33.690 ,3,1,0.,12.0,0.,12.0,0.,12.0,0.,12.0
1979-03-09 16:15:45.690 ,3,1,0.,12.0,0.,12.0,0.,12.0,0.,12.0
1979-03-09 16:15:57.690 ,2,1,0.,12.0,0.,12.0,0.,12.0,0.,12.0
1979-03-09 16:16:09.690 ,2,1,0.,12.0,0.,12.0,0.,12.0,0.,12.0
1979-03-09 16:16:21.690 ,1,1,0.,12.0,0.,12.0,0.,12.0,0.,12.0
1979-03-09 16:16:33.690 ,1,1,0.,12.0,0.,12.0,0.,12.0,0.,12.0
1979-03-09 16:16:45.680 ,0,1,0.,12.0,0.,12.0,0.,12.0,0.,12.0
1979-03-09 16:16:57.680 ,0,1,0.,12.0,0.,12.0,0.,12.0,0.,12.0
1979-03-09 16:17:09.680 ,0,1,0.,12.0,0.,12.0,0.,12.0,0.,12.0
1979-03-09 16:17:21.680 ,0,1,0.,12.0,0.,12.0,0.,12.0,0.,12.0
1979-03-09 16:17:33.680 ,1,1,0.,12.0,0.,12.0,0.,12.0,0.,12.0
1979-03-09 16:17:45.680 ,1,1,0.,12.0,0.,12.0,0.,12.0,0.,12.0
1979-03-09 16:17:57.680 ,2,1,0.,12.0,0.,12.0,0.,12.0,0.,12.0
1979-03-09 16:18:09.680 ,2,1,1.,12.0,0.,12.0,0.,12.0,0.,12.0